Temp
-15 -14 -14 -14 -14 -14 -14 -14 -14 -14 -14 -15 -15 -15 -15 -15 -15 -14 -14 -14 -14 -15 -15 -15 -15 -15 -15 -15 -14 -15 -15 -15 -15 -15 -15 -15 -15 -16 -16 -16 -16 -16 -16 -16 -16 -16 -16 -16 -16 -16 -16 -17 -17 -17 -16 -16 -16 -16 -16 -16 -16 -16 -16 -16 -16 -16 -16 -16 -16 -16 -16 -16 -16 -16
-15 -15 -15 -14 -14 -14 -14 -14 -14 -14 -15 -15 -15 -15 -15 -15 -15 -15 -15 -15 -15 -15 -15 -15 -15 -15 -15 -15 -15 -15 -15 -15 -15 -15 -15 -16 -16 -16 -16 -16 -16 -16 -16 -16 -16 -16 -16 -16 -17 -17 -17 -17 -17 -17 -17 -17 -17 -17 -17 -17 -17 -17 -17 -17 -17 -17 -16 -16 -16 -16 -16 -16 -16 -16
-15 -15 -15 -15 -15 -14 -14 -14 -14 -14 -15 -15 -15 -15 -15 -15 -15 -15 -15 -15 -15 -15 -15 -15 -15 -15 -15 -15 -15 -15 -15 -15 -15 -15 -16 -16 -16 -16 -16 -16 -16 -17 -17 -17 -17 -17 -17 -17 -17 -17 -17 -17 -17 -17 -17 -17 -17 -17 -17 -17 -17 -17 -17 -17 -17 -17 -17 -17 -17 -17 -17 -17 -17 -17
-15 -15 -15 -15 -15 -15 -15 -15 -15 -15 -15 -15 -15 -15 -15 -15 -15 -15 -15 -15 -15 -15 -15 -15 -15 -15 -15 -15 -15 -15 -15 -15 -15 -16 -16 -16 -16 -16 -17 -17 -17 -17 -17 -17 -17 -17 -17 -17 -17 -17 -17 -17 -17 -17 -17 -17 -17 -17 -17 -17 -17 -17 -17 -17 -17 -17 -17 -17 -17 -17 -17 -17 -17 -17
-15 -15 -15 -15 -15 -15 -15 -15 -15 -15 -15 -15 -15 -15 -15 -15 -15 -15 -15 -15 -15 -15 -15 -15 -15 -15 -15 -15 -15 -15 -15 -15 -16 -16 -16 -16 -16 -17 -17 -17 -17 -17 -17 -17 -17 -17 -17 -17 -17 -17 -17 -17 -17 -17 -17 -17 -17 -17 -17 -17 -17 -17 -17 -17 -17 -17 -17 -17 -17 -17 -17 -17 -17 -17
-16 -15 -15 -15 -15 -15 -15 -15 -15 -15 -15 -15 -15 -15 -15 -15 -15 -15 -15 -15 -15 -15 -15 -15 -15 -15 -15 -15 -15 -15 -15 -15 -16 -16 -16 -17 -17 -17 -17 -17 -17 -17 -17 -17 -17 -17 -17 -17 -17 -17 -17 -17 -17 -17 -17 -17 -17 -17 -18 -18 -17 -17 -17 -17 -17 -17 -17 -17 -17 -17 -17 -17 -17 -17
-16 -16 -16 -15 -15 -15 -15 -15 -15 -15 -15 -15 -16 -16 -16 -16 -16 -16 -16 -16 -15 -15 -15 -15 -15 -15 -15 -15 -15 -15 -15 -16 -16 -16 -16 -17 -17 -17 -17 -17 -17 -17 -17 -17 -17 -17 -17 -17 -17 -17 -17 -18 -18 -17 -17 -17 -18 -17 -17 -17 -17 -17 -17 -17 -17 -17 -17 -17 -17 -17 -17 -17 -17 -17
-16 -16 -16 -16 -16 -16 -16 -16 -16 -16 -15 -15 -16 -16 -16 -16 -16 -16 -16 -16 -16 -16 -16 -16 -16 -15 -15 -15 -16 -16 -16 -16 -16 -16 -17 -17 -17 -17 -17 -17 -17 -17 -17 -17 -17 -17 -17 -17 -17 -17 -17 -17 -18 -17 -17 -17 -17 -17 -17 -17 -17 -17 -17 -17 -17 -17 -17 -17 -17 -17 -17 -17 -17 -17
-16 -16 -16 -16 -16 -16 -16 -16 -16 -16 -16 -16 -16 -16 -16 -16 -16 -16 -16 -16 -16 -16 -16 -16 -16 -16 -16 -16 -16 -16 -16 -16 -17 -17 -17 -17 -17 -17 -17 -17 -17 -17 -17 -17 -17 -17 -17 -17 -18 -17 -17 -17 -17 -17 -17 -17 -17 -17 -17 -17 -17 -17 -17 -17 -17 -17 -17 -17 -17 -17 -17 -17 -17 -17
-16 -16 -16 -16 -16 -16 -16 -16 -16 -16 -16 -16 -16 -16 -16 -16 -16 -16 -16 -16 -16 -16 -16 -16 -16 -16 -16 -16 -16 -16 -17 -17 -17 -17 -17 -17 -17 -17 -17 -17 -17 -17 -18 -18 -18 -18 -18 -18 -18 -18 -18 -18 -18 -17 -17 -17 -17 -17 -17 -17 -17 -17 -17 -17 -17 -17 -17 -17 -17 -17 -17 -17 -17 -17
-17 -17 -17 -17 -16 -16 -16 -16 -16 -16 -16 -16 -16 -16 -16 -16 -16 -16 -16 -16 -16 -16 -16 -16 -17 -17 -17 -17 -17 -17 -17 -17 -17 -17 -17 -17 -17 -17 -17 -18 -18 -18 -18 -18 -18 -18 -18 -18 -18 -18 -18 -18 -18 -18 -18 -17 -17 -17 -17 -17 -17 -17 -17 -17 -17 -17 -17 -17 -18 -18 -18 -18 -17 -17
-17 -17 -17 -17 -17 -17 -17 -17 -16 -17 -16 -16 -16 -16 -16 -16 -16 -16 -16 -16 -17 -17 -17 -17 -17 -17 -17 -17 -17 -17 -17 -17 -17 -17 -17 -18 -18 -18 -18 -18 -18 -18 -18 -18 -18 -18 -18 -18 -18 -18 -18 -18 -18 -18 -18 -18 -18 -18 -18 -18 -18 -18 -18 -18 -18 -18 -18 -18 -18 -18 -18 -18 -18 -18
-17 -17 -17 -17 -17 -17 -17 -17 -17 -17 -17 -17 -17 -17 -17 -17 -17 -17 -17 -17 -17 -17 -17 -17 -17 -17 -17 -17 -17 -17 -17 -17 -17 -18 -18 -18 -18 -18 -18 -18 -18 -18 -18 -18 -18 -18 -18 -18 -18 -18 -18 -18 -18 -18 -18 -18 -18 -18 -18 -18 -18 -18 -18 -18 -18 -18 -18 -18 -18 -18 -18 -18 -18 -19
-17 -17 -17 -17 -17 -17 -17 -17 -17 -17 -17 -17 -17 -17 -17 -17 -17 -17 -17 -17 -17 -17 -17 -17 -17 -17 -17 -17 -17 -17 -17 -18 -18 -18 -18 -18 -18 -18 -18 -18 -18 -18 -18 -18 -18 -18 -18 -18 -18 -18 -18 -18 -18 -18 -18 -18 -18 -18 -18 -18 -19 -19 -19 -19 -18 -18 -19 -19 -19 -19 -19 -19 -19 -19
-17 -17 -17 -17 -17 -17 -17 -17 -17 -17 -17 -17 -17 -17 -17 -17 -17 -17 -17 -17 -17 -17 -17 -17 -17 -17 -17 -17 -18 -18 -18 -18 -18 -18 -18 -18 -18 -18 -18 -18 -18 -18 -18 -18 -18 -18 -18 -18 -18 -18 -18 -18 -18 -18 -18 -19 -19 -19 -19 -19 -19 -19 -19 -19 -19 -19 -19 -19 -19 -19 -19 -19 -19 -19
-17 -17 -17 -17 -17 -17 -17 -17 -17 -17 -17 -17 -17 -17 -17 -17 -17 -17 -17 -17 -17 -17 -17 -18 -18 -18 -18 -18 -18 -18 -18 -18 -18 -18 -18 -18 -18 -18 -18 -18 -18 -18 -18 -18 -18 -18 -18 -18 -18 -18 -18 -19 -19 -19 -19 -19 -19 -19 -19 -19 -19 -19 -19 -19 -19 -19 -19 -19 -19 -19 -19 -19 -19 -19
-17 -17 -17 -18 -18 -18 -18 -18 -17 -17 -17 -17 -18 -18 -18 -18 -18 -18 -18 -18 -18 -18 -18 -18 -18 -18 -18 -18 -18 -18 -18 -18 -18 -18 -18 -18 -18 -18 -18 -18 -18 -18 -18 -18 -18 -18 -18 -18 -18 -18 -19 -19 -19 -19 -19 -19 -19 -19 -19 -19 -19 -19 -19 -20 -20 -20 -20 -20 -20 -20 -20 -20 -20 -20
-16 -17 -17 -17 -18 -18 -18 -18 -18 -18 -18 -18 -18 -18 -18 -18 -18 -18 -18 -18 -18 -18 -18 -18 -18 -18 -18 -18 -18 -18 -18 -18 -18 -18 -18 -18 -18 -18 -18 -18 -18 -18 -18 -18 -18 -18 -18 -19 -19 -19 -19 -19 -19 -19 -20 -20 -20 -20 -20 -20 -20 -20 -20 -20 -20 -20 -20 -20 -20 -20 -20 -20 -20 -20
-17 -17 -17 -17 -17 -18 -18 -18 -18 -18 -18 -18 -18 -18 -18 -18 -18 -18 -18 -18 -18 -18 -18 -18 -18 -18 -18 -18 -18 -18 -18 -18 -18 -18 -18 -18 -18 -18 -18 -18 -18 -18 -18 -19 -19 -19 -19 -19 -19 -19 -19 -20 -20 -20 -20 -20 -20 -20 -20 -20 -20 -20 -20 -20 -20 -20 -20 -21 -21 -21 -21 -20 -20 -20
-17 -17 -17 -17 -17 -18 -18 -18 -18 -18 -18 -18 -18 -18 -18 -18 -18 -18 -18 -18 -18 -18 -18 -19 -19 -19 -19 -19 -18 -18 -18 -18 -18 -18 -18 -18 -18 -18 -18 -18 -19 -19 -19 -19 -19 -19 -19 -19 -20 -20 -20 -20 -20 -20 -20 -20 -20 -20 -20 -20 -20 -21 -21 -21 -21 -21 -21 -21 -21 -21 -21 -21 -20 -20
-17 -17 -17 -17 -18 -18 -18 -18 -18 -18 -18 -18 -18 -18 -18 -19 -19 -19 -19 -19 -19 -19 -19 -19 -19 -19 -19 -19 -19 -19 -19 -19 -19 -19 -19 -19 -19 -19 -19 -19 -19 -19 -19 -19 -20 -20 -20 -20 -20 -20 -20 -21 -21 -21 -21 -21 -21 -21 -21 -21 -21 -21 -21 -22 -22 -22 -21 -21 -21 -21 -21 -21 -21 -21
-18 -18 -17 -17 -18 -18 -18 -18 -18 -18 -18 -18 -18 -18 -19 -19 -19 -19 -19 -19 -19 -19 -19 -19 -19 -19 -19 -19 -19 -19 -19 -19 -19 -19 -19 -19 -19 -19 -19 -19 -19 -19 -19 -20 -20 -20 -20 -20 -21 -21 -21 -21 -21 -21 -21 -21 -21 -21 -21 -21 -21 -22 -22 -22 -22 -22 -21 -21 -21 -21 -21 -21 -21 -21
-18 -18 -18 -18 -18 -18 -18 -18 -18 -18 -18 -19 -19 -19 -19 -19 -19 -19 -19 -19 -19 -19 -19 -19 -19 -19 -19 -19 -19 -19 -20 -20 -20 -20 -20 -19 -19 -19 -19 -19 -19 -20 -20 -20 -20 -20 -21 -21 -21 -21 -21 -21 -21 -21 -21 -22 -22 -22 -22 -22 -22 -22 -22 -22 -22 -22 -22 -22 -22 -22 -22 -22 -22 -22
-18 -18 -18 -18 -18 -18 -18 -18 -18 -18 -19 -19 -19 -19 -19 -19 -19 -19 -19 -19 -19 -19 -19 -19 -19 -19 -19 -19 -20 -20 -20 -20 -20 -20 -20 -20 -20 -20 -20 -20 -20 -20 -20 -21 -21 -21 -21 -21 -21 -21 -21 -21 -21 -21 -21 -21 -22 -22 -22 -22 -22 -22 -22 -22 -22 -22 -22 -22 -22 -22 -22 -22 -22 -22
-18 -18 -18 -18 -18 -18 -18 -18 -18 -19 -19 -19 -19 -19 -19 -19 -19 -19 -19 -19 -20 -20 -20 -20 -20 -20 -20 -20 -20 -20 -20 -20 -20 -20 -20 -20 -20 -20 -21 -21 -21 -21 -21 -21 -21 -21 -21 -21 -21 -21 -21 -21 -21 -21 -21 -21 -21 -22 -22 -22 -22 -22 -22 -22 -23 -23 -23 -23 -23 -23 -22 -22 -22 -22
-18 -18 -18 -18 -18 -18 -18 -18 -18 -19 -19 -19 -19 -19 -19 -19 -19 -19 -19 -20 -20 -20 -20 -20 -20 -20 -20 -20 -20 -20 -20 -20 -20 -20 -21 -21 -21 -21 -21 -21 -21 -21 -21 -21 -22 -22 -22 -21 -21 -21 -21 -21 -21 -21 -21 -21 -22 -22 -22 -22 -22 -22 -22 -23 -23 -23 -23 -23 -23 -23 -22 -23 -23 -23
-18 -18 -18 -18 -19 -19 -18 -18 -19 -19 -19 -19 -19 -19 -19 -20 -20 -20 -20 -20 -20 -20 -20 -20 -20 -20 -20 -20 -20 -20 -20 -20 -21 -21 -21 -21 -21 -21 -21 -22 -22 -22 -22 -22 -22 -22 -22 -22 -21 -21 -21 -21 -21 -21 -21 -22 -22 -22 -22 -22 -22 -23 -23 -23 -23 -23 -23 -23 -23 -23 -23 -23 -23 -23
-19 -19 -19 -19 -19 -19 -19 -19 -19 -19 -19 -19 -19 -20 -20 -20 -20 -20 -20 -21 -21 -21 -21 -21 -20 -20 -20 -20 -20 -21 -21 -21 -21 -21 -21 -21 -21 -21 -22 -22 -22 -22 -22 -22 -22 -22 -22 -22 -22 -21 -21 -21 -21 -22 -22 -22 -22 -22 -22 -22 -23 -23 -23 -23 -23 -23 -23 -23 -23 -23 -23 -23 -24 -24
-19 -20 -19 -19 -19 -19 -20 -20 -20 -20 -20 -20 -20 -20 -20 -20 -20 -20 -20 -21 -21 -21 -21 -21 -21 -21 -21 -21 -21 -21 -21 -21 -21 -21 -22 -22 -22 -22 -22 -22 -22 -22 -22 -22 -22 -22 -22 -22 -22 -21 -21 -21 -22 -22 -22 -22 -22 -22 -22 -23 -23 -23 -23 -23 -23 -23 -23 -23 -23 -24 -24 -24 -24 -24
-20 -20 -20 -20 -20 -20 -20 -20 -20 -20 -20 -20 -20 -20 -21 -21 -20 -21 -21 -21 -21 -21 -21 -21 -21 -21 -21 -21 -21 -21 -21 -22 -22 -22 -22 -22 -22 -22 -22 -23 -23 -23 -22 -22 -22 -22 -22 -22 -22 -22 -22 -22 -22 -22 -23 -23 -23 -23 -23 -23 -23 -23 -23 -23 -23 -23 -24 -24 -24 -24 -24 -24 -24 -24
-20 -20 -20 -20 -20 -20 -20 -20 -20 -21 -21 -21 -21 -21 -21 -21 -21 -21 -21 -21 -21 -21 -21 -21 -22 -22 -22 -22 -22 -22 -22 -22 -22 -23 -23 -23 -23 -23 -23 -23 -23 -23 -22 -22 -22 -22 -22 -22 -22 -22 -22 -22 -22 -23 -23 -23 -23 -23 -23 -23 -23 -23 -23 -23 -24 -24 -24 -24 -24 -24 -24 -24 -24 -24
-20 -20 -20 -20 -20 -20 -20 -21 -21 -21 -21 -21 -21 -21 -21 -21 -21 -21 -21 -21 -21 -22 -22 -22 -22 -22 -22 -22 -22 -22 -22 -22 -23 -23 -23 -23 -23 -23 -23 -23 -23 -23 -23 -22 -22 -22 -22 -22 -22 -22 -22 -23 -23 -23 -23 -23 -23 -23 -23 -24 -24 -23 -24 -24 -24 -24 -24 -24 -24 -24 -23 -23 -23 -23
-20 -20 -20 -20 -21 -21 -21 -21 -21 -21 -22 -22 -21 -21 -21 -21 -21 -21 -21 -22 -22 -22 -22 -22 -22 -22 -22 -22 -22 -22 -23 -23 -23 -23 -23 -23 -23 -23 -23 -23 -23 -23 -23 -23 -23 -23 -23 -22 -23 -23 -23 -23 -23 -23 -23 -23 -23 -24 -24 -24 -24 -24 -24 -24 -24 -24 -24 -24 -24 -24 -23 -23 -23 -23
-21 -21 -21 -21 -21 -21 -21 -21 -21 -21 -22 -22 -22 -22 -22 -21 -21 -22 -22 -22 -22 -22 -22 -22 -22 -22 -22 -23 -23 -23 -23 -23 -23 -23 -23 -23 -23 -23 -23 -23 -23 -23 -23 -23 -23 -23 -23 -23 -23 -23 -23 -23 -24 -24 -24 -24 -24 -24 -24 -24 -24 -24 -24 -24 -24 -24 -24 -24 -24 -24 -23 -23 -23 -24
-21 -22 -22 -22 -22 -22 -22 -22 -22 -22 -22 -22 -22 -22 -22 -22 -22 -22 -22 -22 -22 -22 -22 -22 -22 -22 -23 -23 -23 -23 -23 -23 -23 -23 -23 -23 -23 -23 -23 -24 -24 -24 -24 -23 -23 -23 -23 -23 -23 -24 -24 -24 -24 -24 -24 -24 -24 -24 -24 -24 -24 -24 -24 -24 -24 -24 -24 -24 -24 -23 -23 -23 -24 -24
-22 -22 -22 -22 -22 -22 -22 -22 -22 -22 -22 -22 -22 -22 -23 -23 -23 -23 -23 -23 -23 -23 -23 -23 -23 -23 -23 -23 -23 -23 -23 -23 -23 -23 -23 -23 -24 -24 -24 -24 -24 -24 -24 -23 -23 -24 -24 -24 -24 -24 -25 -25 -25 -24 -24 -24 -24 -24 -24 -24 -24 -24 -24 -24 -24 -24 -24 -24 -24 -24 -24 -24 -24 -24
-23 -23 -23 -23 -23 -23 -23 -22 -22 -22 -22 -22 -23 -23 -23 -23 -23 -23 -23 -23 -23 -23 -23 -23 -23 -23 -23 -23 -23 -23 -23 -23 -23 -24 -24 -24 -24 -24 -24 -24 -24 -24 -24 -24 -24 -24 -24 -24 -25 -25 -25 -25 -25 -24 -24 -24 -24 -24 -25 -25 -25 -25 -25 -25 -24 -24 -24 -24 -24 -24 -24 -24 -24 -24
-23 -23 -23 -23 -24 -24 -24 -23 -23 -22 -23 -23 -23 -23 -23 -23 -23 -23 -24 -24 -24 -24 -24 -24 -24 -24 -24 -24 -24 -24 -24 -24 -24 -24 -24 -24 -24 -24 -24 -24 -24 -24 -25 -25 -25 -25 -25 -25 -25 -25 -25 -25 -25 -24 -24 -25 -25 -25 -25 -25 -25 -25 -25 -25 -24 -24 -24 -24 -24 -24 -24 -24 -24 -24
-24 -24 -24 -24 -24 -24 -24 -24 -24 -23 -23 -24 -24 -24 -24 -24 -24 -24 -24 -24 -24 -24 -24 -24 -24 -24 -24 -24 -24 -24 -24 -24 -24 -24 -24 -25 -25 -25 -25 -25 -25 -25 -25 -25 -25 -25 -25 -25 -25 -25 -25 -25 -25 -25 -25 -25 -25 -26 -26 -26 -26 -25 -25 -24 -24 -24 -24 -24 -24 -24 -24 -24 -24 -24
-25 -25 -25 -25 -25 -25 -25 -25 -24 -24 -24 -24 -25 -25 -25 -24 -24 -24 -25 -24 -24 -24 -24 -24 -24 -24 -25 -25 -25 -25 -25 -25 -25 -25 -25 -25 -25 -25 -25 -25 -25 -25 -25 -25 -25 -25 -25 -25 -25 -25 -25 -25 -25 -25 -25 -26 -26 -26 -26 -26 -26 -25 -25 -25 -24 -24 -24 -24 -24 -24 -24 -24 -24 -24
-26 -26 -26 -26 -26 -26 -26 -26 -26 -25 -25 -25 -25 -25 -25 -25 -25 -25 -25 -25 -25 -25 -25 -25 -25 -25 -25 -25 -25 -25 -25 -25 -25 -25 -25 -25 -25 -25 -25 -25 -25 -25 -25 -26 -26 -26 -26 -26 -26 -26 -26 -26 -25 -26 -26 -26 -27 -26 -26 -26 -26 -26 -25 -25 -25 -24 -24 -24 -24 -24 -24 -24 -24 -24
-27 -27 -27 -27 -27 -27 -27 -27 -26 -26 -26 -26 -25 -25 -26 -25 -25 -25 -26 -26 -25 -25 -25 -25 -25 -25 -25 -25 -25 -25 -25 -26 -26 -26 -26 -26 -26 -26 -26 -26 -26 -26 -26 -27 -27 -27 -27 -26 -26 -26 -26 -26 -26 -26 -27 -27 -27 -27 -26 -26 -26 -26 -26 -25 -25 -25 -24 -24 -24 -24 -24 -24 -24 -24
-28 -28 -28 -28 -28 -27 -27 -27 -27 -27 -27 -27 -27 -26 -26 -26 -26 -26 -26 -26 -26 -26 -25 -25 -25 -25 -25 -25 -26 -26 -26 -26 -26 -26 -26 -26 -26 -27 -27 -27 -27 -27 -27 -27 -27 -27 -27 -27 -27 -27 -27 -27 -27 -27 -27 -27 -27 -27 -26 -26 -26 -26 -26 -25 -25 -25 -24 -24 -24 -24 -24 -24 -24 -24
-28 -28 -28 -28 -28 -28 -28 -28 -27 -27 -27 -27 -27 -27 -27 -27 -27 -26 -26 -26 -26 -26 -26 -26 -26 -26 -26 -26 -26 -26 -26 -26 -26 -27 -27 -27 -27 -28 -28 -28 -28 -28 -28 -28 -28 -27 -27 -27 -27 -27 -27 -27 -27 -27 -27 -27 -27 -27 -26 -26 -26 -26 -26 -26 -25 -25 -25 -24 -24 -24 -24 -24 -24 -24
-28 -29 -29 -29 -29 -29 -29 -28 -28 -28 -27 -27 -27 -27 -27 -27 -27 -27 -27 -27 -27 -27 -27 -27 -27 -27 -27 -27 -27 -27 -27 -27 -27 -28 -28 -28 -28 -28 -28 -28 -28 -28 -28 -28 -28 -28 -28 -28 -28 -28 -28 -28 -28 -28 -27 -27 -27 -27 -27 -26 -26 -26 -26 -26 -26 -25 -25 -25 -24 -24 -24 -24 -24 -24
Height
5792 5792 5793 5793 5793 5794 5794 5795 5795 5795 5795 5795 5795 5796 5796 5797 5797 5797 5798 5798 5798 5799 5799 5799 5799 5798 5798 5798 5797 5798 5798 5798 5798 5798 5798 5798 5798 5798 5798 5797 5797 5796 5796 5795 5795 5795 5795 5794 5794 5794 5794 5794 5793 5793 5792 5791 5791 5790 5790 5789 5788 5788 5787 5786 5786 5785 5785 5785 5784 5784 5783 5783 5782 5782
5791 5791 5791 5791 5792 5792 5792 5793 5793 5793 5793 5793 5793 5793 5794 5794 5795 5795 5796 5796 5796 5796 5797 5797 5796 5796 5796 5796 5795 5796 5796 5796 5796 5797 5797 5796 5796 5796 5796 5795 5795 5794 5794 5793 5793 5793 5792 5792 5792 5792 5792 5792 5791 5791 5790 5789 5789 5788 5787 5787 5786 5785 5785 5784 5783 5783 5782 5782 5782 5781 5780 5780 5779 5779
5789 5789 5789 5790 5790 5790 5791 5791 5791 5791 5791 5790 5791 5791 5791 5792 5792 5793 5793 5794 5794 5794 5794 5794 5794 5794 5794 5794 5794 5794 5794 5794 5795 5795 5795 5795 5795 5794 5794 5794 5793 5792 5792 5791 5791 5791 5790 5790 5790 5790 5790 5789 5789 5789 5788 5787 5786 5786 5785 5784 5783 5783 5782 5782 5781 5780 5780 5779 5779 5778 5777 5777 5776 5775
5787 5787 5788 5788 5788 5788 5789 5789 5789 5789 5788 5788 5788 5789 5789 5790 5790 5791 5791 5791 5792 5792 5792 5792 5792 5792 5792 5792 5792 5792 5792 5792 5793 5793 5793 5793 5793 5792 5792 5791 5791 5790 5790 5789 5789 5789 5788 5788 5787 5787 5787 5787 5787 5786 5786 5785 5784 5783 5783 5782 5781 5781 5780 5779 5779 5778 5777 5777 5776 5775 5774 5774 5773 5772
5785 5785 5785 5785 5786 5786 5786 5786 5786 5786 5786 5786 5786 5786 5787 5787 5788 5788 5789 5789 5790 5790 5790 5790 5790 5790 5790 5790 5790 5790 5790 5791 5791 5791 5791 5791 5790 5790 5790 5789 5789 5788 5788 5787 5786 5786 5786 5785 5785 5784 5784 5784 5784 5784 5783 5783 5782 5781 5781 5780 5779 5778 5778 5777 5776 5775 5774 5774 5773 5772 5771 5770 5770 5769
5782 5782 5782 5783 5783 5783 5784 5784 5784 5784 5784 5784 5784 5784 5784 5785 5785 5786 5786 5787 5787 5788 5788 5788 5788 5788 5788 5788 5788 5788 5788 5788 5788 5788 5788 5788 5788 5788 5787 5786 5786 5785 5785 5784 5784 5783 5783 5782 5782 5782 5781 5780 5780 5780 5780 5780 5779 5779 5778 5777 5777 5776 5775 5774 5773 5772 5771 5771 5770 5769 5768 5767 5766 5765
5779 5779 5779 5779 5780 5780 5781 5781 5781 5781 5781 5781 5782 5782 5782 5782 5783 5783 5784 5784 5785 5785 5785 5785 5785 5785 5785 5785 5785 5785 5785 5786 5786 5786 5785 5785 5785 5785 5784 5783 5783 5782 5782 5781 5781 5781 5780 5779 5779 5779 5779 5778 5777 5776 5776 5776 5776 5775 5775 5774 5774 5773 5772 5771 5770 5769 5768 5767 5766 5765 5764 5762 5761 5760
5776 5777 5777 5777 5777 5777 5778 5778 5778 5779 5779 5779 5779 5779 5780 5780 5780 5781 5781 5782 5782 5782 5782 5782 5783 5783 5783 5783 5783 5783 5783 5783 5783 5783 5783 5782 5782 5781 5781 5780 5780 5779 5779 5778 5778 5777 5777 5776 5776 5776 5775 5775 5774 5773 5772 5772 5771 5771 5771 5770 5770 5769 5768 5767 5765 5764 5763 5762 5761 5760 5759 5757 5756 5755
5773 5774 5774 5774 5774 5774 5775 5775 5776 5776 5776 5776 5776 5777 5777 5778 5778 5779 5779 5779 5780 5780 5780 5780 5780 5780 5780 5780 5780 5780 5781 5781 5780 5780 5780 5779 5779 5778 5778 5777 5776 5776 5775 5775 5775 5774 5774 5774 5773 5773 5772 5771 5770 5769 5768 5767 5767 5766 5766 5765 5765 5764 5763 5762 5761 5760 5758 5757 5756 5754 5753 5752 5751 5749
5770 5770 5771 5771 5771 5772 5772 5772 5773 5773 5773 5774 5774 5775 5775 5776 5776 5777 5777 5777 5778 5778 5778 5778 5778 5778 5778 5778 5778 5778 5778 5778 5778 5778 5777 5776 5775 5775 5774 5774 5774 5773 5772 5772 5772 5771 5771 5771 5770 5769 5768 5767 5766 5765 5764 5763 5762 5761 5761 5760 5760 5759 5758 5757 5756 5754 5753 5751 5750 5748 5747 5746 5744 5743
5768 5768 5768 5768 5769 5769 5770 5770 5770 5770 5771 5771 5771 5772 5773 5773 5774 5774 5775 5775 5775 5775 5775 5775 5775 5775 5775 5775 5776 5776 5776 5775 5775 5775 5774 5774 5773 5772 5772 5772 5771 5770 5770 5769 5769 5768 5768 5767 5767 5766 5765 5764 5762 5761 5760 5759 5758 5757 5756 5756 5755 5753 5752 5751 5750 5748 5747 5745 5744 5742 5740 5739 5737 5736
5765 5766 5766 5766 5767 5767 5767 5768 5768 5768 5768 5768 5769 5769 5770 5770 5771 5771 5772 5772 5772 5772 5772 5772 5773 5773 5773 5773 5773 5772 5772 5772 5772 5771 5771 5771 5770 5770 5769 5769 5768 5768 5767 5767 5766 5765 5765 5764 5763 5762 5761 5759 5758 5757 5756 5755 5754 5753 5751 5750 5749 5748 5747 5745 5744 5742 5741 5739 5737 5736 5734 5732 5731 5729
5762 5763 5764 5764 5765 5765 5765 5765 5766 5766 5766 5766 5766 5766 5767 5767 5768 5768 5769 5769 5769 5769 5769 5769 5769 5769 5770 5769 5769 5769 5769 5768 5768 5768 5767 5767 5767 5766 5766 5765 5765 5764 5764 5763 5763 5762 5761 5760 5759 5758 5757 5755 5754 5753 5752 5750 5749 5747 5746 5744 5743 5742 5741 5739 5738 5736 5735 5733 5731 5729 5727 5726 5724 5722
5759 5760 5761 5762 5763 5763 5763 5763 5763 5763 5763 5764 5764 5764 5764 5764 5765 5765 5765 5765 5765 5765 5765 5765 5765 5766 5766 5766 5766 5765 5765 5765 5764 5764 5763 5763 5763 5762 5762 5762 5761 5761 5760 5759 5759 5757 5756 5755 5754 5753 5752 5750 5749 5748 5746 5745 5743 5742 5740 5739 5737 5736 5734 5733 5731 5730 5728 5726 5724 5722 5720 5719 5717 5715
5756 5757 5759 5759 5760 5760 5761 5761 5760 5761 5761 5761 5761 5761 5762 5762 5762 5762 5762 5761 5761 5761 5761 5761 5761 5761 5761 5762 5762 5761 5761 5761 5761 5760 5760 5759 5759 5758 5758 5758 5757 5757 5756 5755 5754 5753 5752 5751 5749 5748 5746 5745 5744 5742 5741 5739 5737 5736 5734 5732 5731 5729 5728 5726 5724 5723 5721 5719 5717 5715 5713 5711 5709 5707
5753 5754 5755 5756 5757 5757 5758 5758 5758 5758 5758 5758 5758 5759 5759 5759 5759 5759 5758 5758 5758 5758 5758 5758 5757 5757 5757 5757 5757 5757 5757 5757 5757 5756 5756 5756 5755 5755 5754 5753 5753 5752 5751 5750 5749 5748 5747 5746 5744 5743 5741 5740 5738 5737 5735 5733 5731 5729 5728 5726 5724 5723 5721 5720 5718 5716 5714 5712 5710 5707 5705 5703 5700 5698
5750 5751 5752 5753 5753 5754 5755 5755 5755 5755 5755 5756 5756 5756 5756 5756 5755 5755 5755 5755 5755 5755 5755 5754 5754 5753 5753 5753 5753 5753 5752 5752 5752 5752 5752 5751 5751 5750 5749 5749 5748 5747 5746 5745 5744 5743 5742 5740 5739 5737 5736 5734 5732 5730 5729 5727 5725 5723 5721 5720 5718 5717 5715 5713 5711 5709 5707 5704 5702 5699 5696 5694 5691 5689
5747 5748 5748 5749 5750 5750 5751 5752 5752 5752 5753 5753 5752 5752 5752 5752 5752 5751 5751 5751 5751 5751 5751 5750 5750 5750 5749 5749 5748 5748 5748 5748 5748 5748 5747 5747 5746 5745 5745 5744 5743 5742 5741 5740 5739 5738 5737 5735 5733 5731 5730 5727 5725 5724 5722 5720 5718 5716 5714 5713 5711 5709 5708 5706 5703 5701 5698 5696 5693 5690 5688 5685 5682 5680
5745 5745 5745 5746 5746 5747 5747 5748 5748 5749 5749 5749 5749 5748 5748 5748 5748 5747 5747 5747 5747 5747 5747 5746 5746 5745 5745 5744 5744 5744 5744 5743 5743 5743 5742 5742 5741 5740 5739 5739 5738 5737 5735 5734 5733 5732 5731 5730 5727 5725 5723 5721 5719 5717 5716 5713 5711 5709 5707 5706 5704 5702 5699 5697 5694 5692 5689 5686 5684 5681 5677 5675 5672 5670
5742 5742 5742 5742 5743 5743 5743 5744 5744 5745 5745 5745 5745 5744 5744 5744 5743 5743 5743 5743 5742 5742 5742 5741 5741 5740 5740 5740 5739 5739 5739 5738 5738 5737 5737 5736 5735 5735 5734 5733 5732 5731 5730 5729 5727 5726 5725 5724 5722 5720 5718 5715 5713 5711 5709 5707 5704 5702 5700 5698 5696 5694 5691 5689 5686 5683 5680 5677 5674 5670 5667 5664 5662 5659
5738 5738 5738 5738 5738 5739 5739 5740 5740 5740 5740 5740 5740 5740 5739 5739 5738 5738 5738 5737 5737 5737 5736 5736 5735 5735 5735 5735 5735 5734 5734 5733 5732 5732 5731 5730 5729 5728 5728 5727 5726 5725 5724 5722 5721 5720 5718 5717 5716 5714 5711 5709 5707 5704 5701 5699 5696 5694 5693 5691 5689 5686 5683 5681 5678 5675 5671 5667 5663 5659 5656 5653 5650 5647
5734 5734 5733 5734 5734 5735 5735 5735 5735 5735 5735 5735 5735 5734 5734 5733 5733 5733 5733 5732 5732 5732 5731 5730 5730 5730 5730 5730 5729 5729 5728 5727 5727 5726 5725 5724 5723 5722 5721 5720 5719 5719 5718 5716 5715 5714 5712 5710 5709 5707 5705 5703 5701 5698 5695 5692 5689 5687 5686 5684 5681 5679 5676 5673 5669 5665 5661 5657 5652 5648 5645 5642 5639 5635
5728 5728 5729 5729 5729 5730 5731 5731 5731 5730 5730 5729 5728 5728 5728 5727 5727 5727 5727 5727 5726 5726 5725 5725 5724 5724 5724 5724 5723 5723 5722 5721 5720 5719 5718 5717 5717 5715 5714 5713 5712 5711 5711 5710 5708 5707 5705 5703 5702 5701 5699 5697 5694 5692 5689 5686 5683 5681 5679 5677 5675 5672 5669 5665 5661 5657 5652 5648 5643 5639 5636 5633 5629 5626
5722 5723 5723 5723 5724 5725 5726 5726 5725 5724 5724 5722 5721 5721 5722 5721 5721 5720 5720 5719 5719 5718 5718 5718 5717 5717 5716 5716 5716 5716 5715 5714 5713 5713 5712 5711 5710 5709 5707 5706 5705 5705 5704 5703 5702 5700 5699 5697 5696 5694 5692 5690 5688 5686 5683 5681 5677 5675 5673 5670 5667 5664 5661 5658 5654 5649 5644 5639 5634 5631 5628 5624 5621 5618
5716 5717 5717 5717 5718 5720 5720 5719 5718 5717 5716 5716 5715 5715 5714 5714 5713 5713 5712 5712 5711 5711 5710 5710 5710 5709 5709 5708 5708 5708 5707 5707 5706 5706 5705 5704 5703 5702 5700 5699 5698 5698 5698 5696 5695 5693 5692 5690 5689 5687 5685 5683 5681 5679 5677 5674 5671 5669 5666 5663 5660 5657 5654 5650 5646 5641 5635 5630 5626 5623 5619 5615 5612 5609
5710 5711 5711 5711 5712 5713 5713 5713 5711 5709 5709 5708 5707 5707 5706 5706 5705 5705 5704 5704 5704 5703 5703 5703 5702 5702 5701 5701 5701 5700 5700 5699 5699 5698 5698 5697 5696 5695 5694 5693 5692 5691 5690 5689 5687 5686 5685 5683 5682 5680 5678 5677 5675 5674 5671 5668 5665 5662 5660 5656 5652 5649 5647 5644 5639 5633 5627 5622 5618 5615 5611 5608 5604 5600
5704 5705 5705 5705 5705 5705 5705 5705 5704 5702 5702 5701 5699 5699 5699 5698 5697 5697 5697 5697 5696 5696 5695 5695 5695 5694 5694 5694 5693 5693 5692 5692 5692 5691 5690 5690 5689 5688 5687 5686 5685 5684 5683 5682 5680 5679 5677 5676 5675 5673 5672 5671 5669 5668 5665 5662 5659 5656 5653 5649 5645 5642 5639 5636 5631 5625 5620 5615 5611 5607 5604 5601 5597 5593
5697 5698 5698 5698 5698 5697 5696 5696 5696 5695 5695 5694 5692 5691 5691 5690 5690 5690 5690 5689 5689 5688 5688 5688 5688 5687 5687 5687 5686 5686 5685 5685 5685 5684 5683 5683 5682 5681 5680 5679 5678 5676 5675 5674 5673 5672 5671 5669 5668 5666 5665 5664 5663 5661 5659 5656 5653 5649 5646 5643 5638 5635 5632 5628 5623 5617 5612 5608 5604 5601 5598 5595 5591 5588
5690 5690 5690 5690 5690 5689 5688 5688 5688 5687 5687 5686 5685 5684 5683 5682 5682 5682 5681 5681 5681 5681 5681 5680 5680 5679 5679 5679 5679 5679 5678 5678 5677 5677 5676 5675 5674 5673 5673 5671 5670 5669 5668 5667 5666 5665 5664 5663 5661 5660 5659 5657 5656 5654 5652 5650 5647 5643 5639 5636 5633 5629 5624 5620 5615 5610 5606 5601 5598 5595 5592 5589 5586 5583
5682 5682 5682 5682 5682 5682 5681 5681 5680 5678 5677 5677 5677 5676 5675 5674 5674 5674 5673 5674 5673 5673 5673 5673 5672 5672 5672 5672 5672 5671 5671 5671 5670 5670 5669 5668 5667 5666 5665 5664 5663 5662 5661 5661 5660 5659 5657 5656 5655 5653 5652 5651 5649 5648 5646 5643 5640 5636 5632 5629 5627 5623 5618 5613 5608 5603 5599 5595 5592 5589 5587 5584 5581 5578
5674 5674 5674 5674 5674 5675 5675 5674 5672 5670 5668 5667 5668 5667 5666 5666 5666 5666 5665 5666 5666 5665 5665 5665 5665 5665 5664 5664 5664 5664 5664 5663 5663 5663 5662 5661 5660 5659 5657 5656 5655 5655 5654 5653 5653 5652 5651 5650 5648 5647 5646 5645 5643 5642 5639 5637 5633 5629 5625 5622 5619 5616 5611 5606 5601 5597 5593 5590 5587 5584 5581 5579 5576 5573
5665 5665 5665 5665 5665 5666 5666 5665 5663 5662 5660 5659 5659 5659 5658 5657 5657 5657 5657 5657 5657 5657 5657 5657 5657 5656 5656 5656 5656 5656 5656 5656 5656 5655 5654 5653 5652 5651 5650 5649 5648 5647 5647 5646 5646 5646 5645 5644 5642 5641 5640 5639 5637 5636 5634 5630 5626 5622 5619 5616 5612 5608 5604 5600 5596 5592 5589 5585 5582 5579 5577 5574 5571 5569
5656 5656 5656 5656 5656 5657 5657 5656 5656 5655 5653 5651 5650 5650 5649 5649 5649 5649 5649 5649 5649 5649 5649 5649 5649 5649 5649 5649 5649 5649 5649 5649 5648 5647 5646 5645 5644 5643 5643 5642 5641 5640 5640 5639 5639 5639 5638 5638 5636 5634 5633 5632 5630 5629 5628 5625 5620 5616 5613 5610 5606 5601 5598 5595 5591 5588 5584 5581 5578 5575 5572 5570 5567 5564
5646 5646 5646 5647 5647 5647 5647 5648 5648 5648 5646 5644 5642 5641 5640 5640 5641 5641 5641 5641 5641 5641 5642 5642 5641 5641 5641 5641 5641 5641 5641 5641 5640 5639 5638 5637 5637 5637 5636 5635 5635 5634 5633 5633 5633 5633 5632 5631 5630 5627 5624 5624 5623 5621 5620 5619 5615 5610 5606 5603 5599 5596 5592 5589 5586 5583 5580 5577 5574 5571 5568 5565 5563 5561
5635 5635 5635 5636 5637 5638 5638 5639 5640 5640 5638 5636 5635 5633 5632 5632 5632 5632 5632 5633 5633 5633 5633 5633 5633 5632 5633 5633 5633 5633 5633 5632 5632 5631 5631 5630 5630 5630 5629 5629 5628 5628 5627 5627 5627 5627 5627 5625 5623 5620 5617 5615 5613 5613 5612 5611 5608 5604 5599 5595 5592 5589 5586 5583 5581 5579 5576 5573 5570 5567 5564 5561 5559 5557
5624 5623 5623 5624 5625 5627 5629 5629 5630 5630 5629 5628 5626 5626 5625 5624 5624 5624 5624 5624 5625 5625 5625 5625 5625 5625 5625 5625 5625 5625 5625 5625 5625 5624 5624 5624 5624 5624 5623 5623 5622 5622 5621 5621 5621 5621 5620 5619 5617 5615 5612 5609 5606 5604 5603 5603 5601 5596 5591 5588 5586 5583 5581 5578 5576 5574 5572 5569 5566 5563 5560 5558 5556 5554
5612 5612 5612 5613 5614 5616 5618 5619 5619 5619 5619 5619 5618 5617 5618 5618 5617 5617 5617 5617 5616 5616 5616 5617 5617 5617 5616 5616 5617 5617 5618 5618 5618 5617 5617 5618 5618 5618 5617 5617 5617 5616 5615 5615 5614 5614 5613 5612 5611 5609 5607 5605 5601 5597 5594 5594 5593 5590 5585 5583 5581 5579 5576 5574 5572 5570 5568 5565 5563 5560 5557 5554 5552 5551
5601 5602 5602 5602 5603 5604 5605 5607 5608 5608 5609 5609 5609 5609 5609 5610 5611 5610 5609 5609 5608 5608 5608 5609 5609 5609 5609 5609 5610 5610 5611 5611 5611 5611 5611 5611 5612 5612 5611 5611 5610 5609 5608 5608 5607 5607 5607 5606 5604 5603 5601 5599 5596 5591 5587 5585 5584 5583 5580 5578 5576 5575 5573 5570 5568 5566 5564 5562 5559 5557 5554 5551 5549 5547
5589 5590 5590 5591 5591 5592 5594 5596 5597 5597 5597 5598 5600 5601 5601 5601 5602 5602 5601 5600 5600 5600 5601 5601 5602 5602 5602 5603 5603 5603 5604 5604 5605 5605 5605 5605 5605 5605 5605 5604 5604 5603 5602 5601 5601 5600 5600 5599 5597 5595 5593 5591 5588 5585 5581 5578 5577 5577 5576 5574 5573 5571 5569 5567 5565 5563 5560 5558 5556 5553 5551 5548 5546 5544
5578 5578 5579 5580 5580 5581 5583 5584 5585 5587 5588 5589 5591 5594 5595 5595 5595 5594 5594 5593 5593 5594 5594 5595 5595 5596 5596 5596 5596 5597 5597 5597 5597 5598 5598 5598 5599 5599 5598 5598 5597 5597 5596 5595 5593 5593 5592 5591 5589 5587 5585 5583 5580 5578 5576 5574 5573 5572 5572 5571 5570 5568 5566 5564 5562 5560 5557 5555 5552 5550 5548 5546 5543 5541
5567 5568 5569 5570 5570 5572 5574 5575 5575 5577 5579 5580 5582 5585 5588 5589 5588 5587 5587 5587 5587 5587 5588 5588 5589 5589 5590 5590 5590 5590 5590 5590 5590 5591 5591 5591 5591 5591 5591 5590 5590 5589 5588 5587 5586 5585 5584 5583 5581 5578 5576 5574 5573 5571 5570 5569 5569 5569 5569 5568 5567 5565 5563 5561 5559 5557 5555 5552 5550 5548 5546 5543 5541 5538
5558 5559 5559 5560 5561 5563 5566 5567 5567 5568 5570 5572 5573 5575 5578 5580 5581 5580 5579 5579 5580 5580 5581 5581 5581 5582 5583 5584 5583 5583 5583 5583 5583 5584 5584 5584 5584 5584 5584 5583 5583 5582 5581 5579 5578 5576 5575 5574 5572 5571 5569 5568 5567 5566 5565 5565 5565 5565 5566 5565 5564 5563 5561 5559 5557 5555 5552 5550 5547 5545 5543 5540 5538 5536
5551 5551 5552 5552 5553 5555 5557 5560 5561 5563 5564 5565 5566 5567 5569 5570 5571 5571 5571 5571 5572 5572 5573 5574 5575 5576 5577 5577 5577 5577 5576 5576 5577 5578 5578 5578 5577 5577 5577 5576 5575 5574 5573 5571 5569 5568 5568 5567 5565 5564 5563 5562 5561 5561 5561 5562 5562 5562 5562 5562 5561 5560 5558 5557 5555 5552 5550 5548 5545 5543 5540 5537 5535 5533
5544 5544 5545 5545 5546 5548 5550 5552 5554 5556 5558 5559 5559 5560 5562 5562 5562 5562 5563 5563 5563 5564 5566 5568 5569 5569 5570 5571 5570 5570 5570 5571 5571 5572 5571 5571 5571 5570 5570 5569 5568 5567 5566 5564 5562 5561 5561 5560 5559 5557 5557 5557 5557 5557 5557 5558 5559 5559 5559 5559 5558 5557 5556 5554 5553 5550 5548 5546 5543 5541 5538 5536 5533 5531
5539 5539 5539 5539 5540 5541 5542 5544 5546 5548 5550 5551 5551 5553 5554 5555 5554 5555 5556 5556 5556 5558 5560 5562 5563 5563 5564 5564 5564 5564 5565 5565 5566 5566 5565 5564 5564 5564 5563 5562 5561 5560 5559 5557 5556 5554 5554 5553 5552 5552 5552 5552 5552 5552 5553 5554 5555 5555 5556 5556 5555 5554 5553 5552 5551 5549 5547 5544 5542 5539 5537 5534 5532 5529
Wind_Speed
15 15 15 15 15 15 14 14 14 14 15 16 16 17 17 17 17 18 17 18 18 17 17 17 17 17 17 18 19 20 20 20 21 21 22 22 22 21 20 19 18 17 17 17 17 17 17 16 16 16 16 15 15 15 15 15 15 15 15 14 14 14 13 14 14 14 15 15 15 15 15 16 17 17
14 14 15 15 15 15 15 15 15 15 16 17 17 17 17 18 18 18 18 18 19 18 18 18 18 17 18 19 20 20 21 21 22 22 23 23 22 21 20 19 18 18 17 17 17 18 18 18 18 17 17 17 16 16 15 15 15 15 15 15 15 14 15 15 15 16 16 17 18 18 18 19 19 20
15 15 15 16 16 16 16 15 16 16 17 18 18 18 18 19 19 19 19 19 19 18 18 18 18 18 19 20 21 22 22 22 23 23 23 23 23 22 21 20 19 19 18 18 18 18 18 18 18 18 18 18 18 17 17 17 17 17 17 17 16 17 17 18 19 19 20 20 21 22 22 22 22 23
16 17 17 17 17 16 16 16 17 17 18 18 19 19 19 19 19 19 19 19 19 18 18 18 19 19 20 21 22 23 24 24 24 23 23 23 23 23 22 21 20 20 19 19 18 18 18 18 18 18 18 18 19 19 19 19 19 20 19 19 19 19 20 21 22 22 23 24 24 25 25 26 26 27
19 19 19 19 18 18 18 18 18 18 19 19 19 19 19 19 19 18 18 18 18 18 19 19 20 20 21 22 23 24 25 25 25 24 24 24 24 23 22 21 21 20 20 19 19 19 19 19 19 19 19 20 20 21 21 22 22 22 22 22 22 23 23 24 24 25 25 26 26 27 27 28 28 29
20 20 21 20 20 20 20 19 19 20 20 20 19 19 19 19 18 18 18 18 19 19 20 20 21 21 22 23 24 25 26 27 26 25 24 24 23 23 23 22 22 22 21 21 21 20 21 21 21 21 21 21 21 22 23 24 24 25 25 24 24 24 25 25 25 26 27 28 28 29 29 30 30 31
20 21 22 22 22 22 21 21 21 21 21 21 20 20 20 19 19 18 19 19 20 21 21 21 22 22 23 24 25 26 27 27 27 26 25 24 23 23 23 24 24 24 24 23 23 23 23 23 23 23 23 23 23 23 24 25 25 26 26 26 25 26 26 27 27 29 30 31 31 32 33 33 34 34
21 22 22 23 23 23 23 22 22 22 23 22 22 21 21 21 20 20 20 21 21 22 22 22 23 23 24 25 25 26 26 26 26 26 25 25 25 25 25 25 26 26 26 26 26 26 25 25 24 24 24 25 24 25 25 26 26 27 27 28 28 29 30 31 31 33 34 35 36 36 37 38 38 39
22 22 23 23 23 23 23 23 23 23 24 23 23 22 22 22 22 22 22 22 23 23 24 24 24 25 25 26 26 26 26 26 26 26 26 26 26 26 27 27 28 28 28 28 27 27 27 26 26 26 26 26 27 27 27 28 29 30 30 31 32 33 35 36 37 38 39 40 41 42 42 43 44 45
23 23 23 23 23 23 23 23 23 24 24 24 23 23 23 23 23 23 23 23 23 24 24 25 25 25 26 26 27 27 27 27 27 27 28 28 28 28 28 29 29 29 29 29 29 28 28 27 27 27 28 28 29 30 31 32 33 34 35 36 37 38 40 41 43 44 45 45 46 46 47 48 49 49
23 23 24 24 23 23 23 23 24 24 24 24 24 24 24 24 24 24 23 23 24 24 25 25 25 25 25 26 27 27 27 27 27 28 28 29 29 29 29 30 30 31 31 31 31 30 30 29 29 30 30 31 32 33 35 36 37 38 39 40 41 42 44 45 46 47 48 49 49 50 50 51 52 52
23 23 24 24 24 24 24 24 24 24 24 25 25 25 24 24 24 24 24 24 24 24 24 24 24 24 25 25 26 26 26 27 27 28 28 29 29 30 30 31 32 32 33 33 33 33 33 33 33 34 34 35 36 38 39 40 41 42 43 44 45 45 46 47 48 49 50 51 51 52 52 52 52 53
22 23 24 24 25 25 25 25 25 24 25 25 26 26 26 26 25 25 24 23 23 22 22 22 23 23 24 25 26 26 26 27 28 28 29 29 30 30 31 32 33 33 34 34 34 35 36 37 37 38 39 40 41 42 43 44 45 45 46 47 47 47 48 48 48 49 50 51 52 53 53 53 53 53
21 22 23 24 25 25 26 26 26 26 25 26 26 26 27 26 26 24 24 23 23 22 22 23 23 24 25 26 27 27 28 28 29 29 30 30 31 31 32 33 33 34 35 36 38 39 40 41 42 42 43 44 44 45 45 45 46 46 47 47 48 48 48 48 49 50 51 52 53 54 54 54 54 55
20 22 23 24 25 26 26 27 27 27 27 26 26 26 26 26 25 25 25 25 25 24 24 24 25 25 26 27 27 27 28 28 29 30 31 31 32 33 34 34 35 36 38 39 40 41 42 43 44 44 45 45 44 44 43 44 45 46 47 48 49 50 50 51 51 52 53 54 55 55 56 56 56 57
19 21 22 24 25 26 26 27 28 28 27 27 27 27 27 27 26 27 27 27 27 27 27 27 27 27 27 27 27 27 28 28 29 30 31 33 34 35 36 36 37 38 39 40 41 42 43 43 44 44 44 43 43 43 44 44 45 46 48 49 50 51 51 52 52 53 54 55 55 56 57 57 58 59
17 20 22 23 25 26 26 27 28 28 29 29 29 29 29 29 29 29 29 29 29 29 29 29 29 29 28 28 28 29 29 30 30 32 33 34 35 36 37 38 39 40 41 42 43 44 45 45 45 45 45 44 45 46 47 47 48 49 50 50 51 51 52 52 53 54 55 55 56 57 58 59 60 61
19 20 21 23 24 26 26 27 28 29 30 30 31 31 32 32 32 32 32 31 32 32 32 32 32 31 31 31 31 31 31 31 33 34 35 36 37 38 40 41 41 42 42 43 45 46 47 48 48 48 48 48 48 49 49 50 51 52 53 53 53 53 54 54 55 56 57 57 58 59 60 62 63 64
22 22 23 24 25 26 27 28 29 30 32 33 33 34 35 35 35 35 35 34 34 34 34 35 35 34 33 33 33 33 33 34 35 36 37 38 40 41 42 43 43 43 43 44 45 46 48 50 50 50 50 50 51 51 51 53 54 55 54 54 54 55 55 56 57 58 59 60 61 63 65 66 67 68
26 26 26 27 28 28 28 29 30 31 33 34 35 36 37 37 38 37 37 37 36 36 36 37 37 37 36 36 36 36 36 37 38 39 40 41 42 43 45 45 45 45 45 45 45 47 49 50 50 51 51 51 52 53 54 55 55 54 53 53 54 55 55 56 58 59 61 64 66 68 70 71 73 74
31 31 31 31 31 32 32 32 32 33 34 36 37 38 39 40 40 39 39 39 38 37 38 40 41 42 42 41 40 40 40 41 41 42 42 43 44 45 47 48 48 48 47 47 48 50 51 51 51 51 51 52 53 54 55 55 53 53 52 53 54 54 55 57 60 63 67 69 72 74 75 76 77 76
34 35 35 35 35 35 36 36 36 37 37 39 40 41 42 42 42 41 41 41 40 39 41 44 45 46 47 46 45 44 44 44 45 45 45 45 46 47 48 49 50 50 49 49 50 52 54 53 52 52 52 53 53 53 53 52 51 52 53 53 54 56 59 62 65 68 71 74 75 76 76 75 73 71
34 36 37 38 38 38 38 39 40 40 42 43 44 44 43 43 43 43 43 44 44 44 45 46 47 48 49 49 49 48 48 48 48 47 47 48 48 49 49 49 50 51 50 50 52 54 54 54 53 53 54 54 53 52 50 50 51 52 53 55 57 59 63 66 68 71 73 73 72 70 68 67 65 63
35 37 38 40 40 40 39 40 41 43 44 46 47 46 45 45 46 47 48 49 49 49 48 48 48 49 50 51 52 52 52 52 51 50 50 50 51 51 51 50 50 51 50 51 53 54 54 54 54 54 53 53 53 52 51 51 53 54 56 57 60 62 66 68 70 72 73 71 67 64 62 61 60 59
38 39 41 42 42 41 41 41 43 45 46 48 49 50 50 50 50 51 52 52 50 49 49 50 49 50 51 52 54 54 54 54 53 52 52 52 53 53 52 51 50 51 52 53 55 55 55 55 54 53 52 53 54 53 53 54 56 57 58 60 62 66 68 69 72 74 72 66 63 61 61 60 58 57
42 42 43 45 45 45 45 44 45 48 49 50 52 51 50 49 49 49 50 50 49 48 48 49 50 51 53 54 55 55 55 54 54 54 53 53 54 53 53 52 52 53 54 55 56 56 56 55 53 51 51 54 55 55 55 56 57 58 59 62 65 68 68 71 74 74 68 63 61 61 59 57 55 53
45 45 46 46 47 48 49 49 49 50 50 51 52 51 49 50 51 50 50 50 50 50 49 49 50 51 52 54 55 55 55 55 54 53 53 53 54 54 55 55 55 55 56 56 57 58 57 55 51 50 53 56 57 56 57 57 58 59 61 63 66 67 69 73 75 71 64 60 60 58 55 53 50 48
47 47 48 49 49 51 51 51 52 53 51 52 54 54 52 53 54 53 52 52 52 51 50 50 51 52 54 55 56 56 56 55 54 54 54 55 56 57 58 58 57 57 57 58 59 58 57 54 50 51 55 58 58 57 57 57 58 60 61 63 64 67 71 75 74 67 60 58 56 53 50 47 45 44
51 51 52 53 53 54 55 54 56 56 54 54 56 58 56 55 54 53 52 52 52 52 53 54 56 56 55 55 55 56 56 55 56 56 56 57 57 58 58 57 58 59 60 59 58 57 55 52 50 53 57 59 58 58 57 57 59 61 61 63 65 68 73 75 70 61 57 54 51 48 45 43 41 41
54 54 55 55 55 56 57 57 55 54 54 54 56 58 59 58 57 57 57 57 58 58 58 58 56 54 53 53 54 55 56 57 57 56 56 57 57 57 58 59 60 60 59 57 56 55 54 52 51 55 57 58 58 58 58 59 60 60 61 64 67 71 74 72 64 57 53 51 47 44 41 40 39 38
55 56 56 57 57 57 57 55 53 52 53 55 55 56 59 60 61 61 61 61 62 62 59 55 52 52 54 56 57 56 57 57 57 57 56 56 57 58 59 59 59 57 56 56 55 55 53 52 53 55 56 57 58 58 59 60 60 60 63 66 70 73 72 66 58 53 50 47 44 42 39 38 38 38
59 59 58 58 59 58 55 54 53 53 54 56 56 56 58 61 61 61 61 60 60 59 57 54 52 53 56 57 57 57 56 56 57 57 55 55 55 56 56 55 55 55 55 55 55 54 52 52 53 54 55 56 57 58 58 59 60 62 65 68 70 71 67 58 52 49 46 43 43 41 38 37 38 38
63 63 62 61 60 58 56 55 53 53 54 56 57 59 61 62 61 60 59 58 57 56 56 56 55 54 54 54 56 57 56 55 55 55 54 53 53 53 52 52 52 53 53 53 52 51 51 52 53 54 55 56 56 56 57 57 61 64 66 68 69 66 59 51 47 45 41 40 41 40 38 37 38 37
67 66 66 64 62 60 58 56 54 54 55 57 58 59 60 60 59 58 57 57 57 57 56 55 55 55 55 57 58 57 54 52 50 50 49 49 49 49 49 51 52 52 51 50 49 49 51 53 54 55 56 56 55 55 56 58 62 65 66 68 66 59 51 46 43 39 37 38 38 38 37 38 37 35
70 69 69 67 65 63 60 58 57 57 57 57 59 60 59 57 56 55 56 56 58 58 56 55 56 57 56 56 55 52 50 48 47 47 47 48 48 49 50 51 50 49 48 48 49 51 53 54 54 55 55 56 56 57 58 61 63 65 65 64 60 51 45 43 39 35 35 36 36 36 36 36 35 32
69 70 70 69 68 65 63 61 59 56 54 53 54 55 54 52 51 50 50 51 52 54 55 54 54 53 52 51 50 50 49 48 47 48 49 50 50 49 48 47 46 46 47 49 51 53 54 54 53 52 53 56 58 60 61 62 63 63 60 55 50 44 42 40 36 34 35 35 34 34 34 33 31 28
66 67 67 68 68 67 66 64 62 59 55 54 53 52 49 46 44 46 48 50 51 52 52 51 50 50 51 51 51 51 50 49 49 49 49 49 48 47 45 46 47 48 51 52 54 54 54 53 53 53 55 57 60 62 62 62 60 56 50 45 42 40 38 36 34 33 33 32 31 31 31 30 28 26
67 66 65 65 66 67 67 68 70 69 66 62 61 61 58 52 48 47 48 49 50 50 50 51 52 52 52 51 50 49 48 48 48 48 47 46 45 45 45 47 49 50 52 52 53 53 53 53 54 56 58 59 60 60 60 58 53 46 40 37 36 35 34 33 31 30 29 29 28 28 27 28 28 26
68 67 66 65 65 65 66 68 71 74 73 68 62 58 55 53 51 50 49 49 50 50 49 50 50 50 49 48 47 47 47 47 47 46 45 43 42 42 43 46 47 49 50 51 52 53 54 55 57 58 59 59 58 57 54 49 43 36 32 31 31 32 31 29 27 25 25 26 26 26 26 27 27 27
64 63 62 61 61 61 63 65 68 72 74 73 66 56 47 43 42 43 44 45 46 45 45 46 46 45 45 44 44 44 45 45 45 44 43 41 40 40 42 44 47 49 51 52 54 55 56 57 57 57 57 55 54 51 46 39 33 28 26 25 27 27 26 24 21 20 21 23 25 25 25 25 25 26
59 58 58 57 56 56 56 57 60 64 68 71 69 63 55 48 45 45 45 43 42 43 43 43 43 44 45 45 45 45 44 43 43 43 42 42 43 44 46 48 50 52 52 53 53 54 54 54 54 52 51 49 46 42 36 30 26 23 21 21 21 21 20 18 16 17 18 21 23 23 23 22 23 24
49 50 51 52 53 53 51 49 49 52 55 59 62 63 60 57 56 56 54 51 47 46 46 45 46 47 47 47 46 45 44 44 44 44 45 46 47 48 49 49 49 49 48 48 49 50 52 51 50 47 44 41 37 33 28 24 22 20 19 18 17 16 15 15 14 15 16 19 21 22 22 21 21 22
40 41 43 45 46 47 46 45 43 42 44 46 48 49 50 52 54 55 55 53 51 50 48 48 48 48 46 45 44 44 44 45 46 46 46 46 46 45 45 44 44 43 44 45 48 50 50 48 45 42 38 35 31 27 24 22 21 19 18 16 14 13 13 14 14 15 16 18 20 21 21 21 21 20
35 36 37 39 40 40 40 41 41 41 41 41 39 38 38 40 44 46 47 47 48 47 46 45 45 45 45 45 45 45 45 45 45 44 43 42 41 41 41 41 41 42 44 46 49 49 47 44 41 37 34 30 27 25 22 21 20 19 18 15 13 12 13 14 15 16 17 18 19 19 20 20 19 18
33 32 32 33 34 35 36 39 41 43 43 42 40 39 37 37 39 41 42 43 44 45 44 44 44 45 45 44 43 42 41 40 39 38 38 38 39 39 40 40 42 44 46 47 48 47 44 40 36 32 29 26 24 23 22 21 20 20 18 15 13 12 12 13 15 16 17 18 18 19 19 19 18 17
Wind_Direction
253 255 257 260 262 264 265 267 268 268 268 267 268 268 269 269 269 268 269 269 270 271 272 273 274 276 279 282 284 287 290 293 295 295 296 297 298 298 298 297 295 292 290 290 290 290 290 289 289 290 291 291 291 290 290 290 289 289 288 287 286 286 287 288 289 290 291 290 290 289 289 289 290 290
257 261 264 267 269 269 270 270 269 269 268 267 268 269 269 269 268 269 269 269 270 271 271 273 275 277 280 282 284 287 289 292 293 294 295 296 296 296 295 293 290 288 286 285 286 286 286 285 285 286 287 287 287 286 285 283 282 282 282 282 283 285 286 288 290 291 291 290 290 289 289 289 289 289
258 261 264 267 270 272 273 273 272 271 270 270 270 270 270 269 269 269 269 269 270 270 271 273 275 278 280 282 284 286 287 289 291 292 294 294 294 293 292 290 287 285 283 281 280 280 280 281 282 283 285 285 286 285 284 283 282 281 281 282 284 286 289 291 292 292 292 291 290 289 289 289 289 289
257 259 261 264 266 269 270 271 271 270 270 270 270 270 269 268 268 267 268 268 268 268 270 272 274 276 278 280 282 284 286 287 289 290 291 292 292 291 289 287 285 283 281 280 279 279 280 282 283 285 287 288 288 286 285 283 282 282 282 282 284 286 288 289 290 290 289 287 286 286 286 287 287 287
259 260 261 262 264 265 266 266 266 265 266 267 267 267 266 265 264 264 264 265 266 267 268 270 272 274 276 278 281 283 284 285 286 288 288 288 288 288 287 284 282 281 280 280 281 283 285 286 286 287 288 289 289 288 286 283 282 281 282 283 284 286 287 287 286 286 285 284 283 283 283 284 284 284
261 263 264 265 266 266 265 265 264 262 262 262 263 263 262 260 260 259 260 262 264 266 266 267 269 271 274 277 279 281 282 283 284 284 284 284 284 284 283 281 280 280 281 282 284 286 287 287 288 288 287 286 286 286 285 283 281 281 281 282 283 283 283 283 283 283 283 283 284 284 284 284 284 284
262 263 265 266 267 267 267 266 264 262 261 260 259 258 257 257 256 257 258 260 262 265 265 266 268 270 272 275 277 278 279 281 282 282 283 282 281 281 279 279 280 281 283 285 287 287 287 287 288 289 287 285 283 282 281 279 278 279 279 280 281 281 281 282 283 284 285 286 287 287 288 287 287 287
260 261 263 266 268 269 269 267 264 262 261 260 258 255 253 252 253 253 255 258 260 263 265 267 268 270 271 273 274 276 277 279 280 281 281 280 279 278 277 278 279 281 283 284 285 285 285 286 286 286 285 283 282 280 279 279 279 279 280 282 283 285 286 287 287 288 288 289 290 290 291 291 291 290
257 260 262 264 266 267 268 267 265 263 261 260 259 255 252 251 251 252 253 256 258 261 264 266 268 269 271 272 274 275 276 276 277 277 277 276 275 275 275 277 278 280 281 282 282 282 282 283 283 283 282 281 281 281 282 282 283 283 283 284 285 286 287 288 289 290 290 290 290 291 291 291 291 290
255 259 262 263 263 263 264 265 265 264 263 261 259 256 253 252 252 253 254 256 258 260 262 265 267 270 271 273 274 275 274 274 274 274 274 274 275 275 276 278 278 279 279 279 279 280 281 281 281 281 281 282 282 283 283 284 284 284 285 285 285 286 286 288 289 289 290 290 290 290 290 289 289 289
253 257 260 261 260 259 259 261 263 264 264 263 260 257 254 253 253 254 254 256 259 262 264 267 269 271 273 274 274 274 273 272 272 272 273 275 276 278 279 279 278 278 279 279 280 280 281 281 282 282 283 284 285 285 285 285 285 285 286 286 286 287 287 287 288 289 289 290 290 290 289 289 288 287
251 255 258 259 258 258 258 259 260 261 264 264 263 260 258 256 256 257 258 260 262 265 267 269 270 271 272 273 273 273 272 272 273 274 276 277 278 278 279 278 278 278 279 279 280 281 282 283 284 284 285 286 286 286 286 287 287 288 288 288 288 287 287 288 288 288 288 288 288 288 288 287 286 286
248 253 256 258 257 257 257 257 257 257 259 261 263 263 263 263 262 263 263 263 264 264 265 267 268 269 270 270 271 272 272 274 275 277 278 278 278 278 278 279 279 279 279 280 281 282 283 284 285 285 286 286 287 287 288 289 289 289 289 289 288 288 288 287 287 287 287 287 287 287 286 286 285 285
243 248 252 254 254 254 255 255 255 255 255 256 258 260 261 262 263 264 264 263 263 263 263 265 266 267 268 269 270 272 274 276 277 278 279 279 279 279 279 279 280 281 281 282 283 284 285 286 287 288 288 289 289 290 290 291 291 291 291 290 289 289 289 288 288 288 288 288 288 287 287 287 286 285
237 243 246 248 250 251 252 254 255 255 254 252 252 253 254 255 257 259 261 262 262 261 262 263 264 266 267 268 270 272 274 276 277 279 280 280 280 280 281 281 282 282 283 284 285 286 287 288 289 290 290 290 290 290 292 293 294 294 294 294 292 291 291 291 291 290 290 289 288 288 287 286 286 285
233 238 242 245 247 249 252 254 255 254 252 250 249 249 249 250 253 257 260 260 260 260 261 262 263 264 266 268 270 272 273 275 277 279 280 281 281 282 283 283 284 284 286 287 287 288 289 290 290 290 290 289 289 290 292 294 295 296 297 297 296 294 293 292 292 291 290 290 289 288 287 286 285 285
236 236 238 242 247 250 251 253 253 252 250 250 250 249 249 250 252 255 257 258 258 258 259 260 261 262 264 266 268 270 273 275 276 278 279 280 281 282 282 283 284 285 287 288 289 290 290 290 290 290 289 289 289 291 293 294 296 297 298 298 298 296 294 292 292 291 291 291 290 290 289 288 287 286
249 245 243 242 244 246 249 249 250 250 250 251 250 249 249 251 252 253 253 254 255 256 257 258 258 259 261 263 265 267 270 272 274 276 278 279 280 281 281 281 282 284 286 288 290 290 290 289 289 289 289 289 290 291 293 295 297 298 298 298 298 296 295 294 293 293 293 293 292 292 291 290 289 287
258 257 255 252 247 245 246 247 248 249 251 252 251 250 251 252 253 254 255 255 255 256 256 256 256 258 260 262 264 266 268 270 272 275 277 279 279 280 280 280 280 282 284 287 289 290 291 290 289 289 290 290 291 292 294 296 298 298 298 298 298 297 297 297 296 296 296 295 294 293 292 291 290 289
263 263 263 261 258 254 250 249 249 250 251 252 252 253 254 254 256 258 260 260 261 262 262 260 258 259 262 265 266 267 268 269 271 274 276 278 279 282 283 282 281 281 283 285 287 291 292 292 290 290 290 291 293 294 296 298 299 299 299 299 300 300 299 299 299 298 297 296 295 294 293 292 291 290
267 267 265 263 263 262 259 256 254 254 254 255 255 256 257 258 260 261 262 263 264 266 267 266 264 264 266 268 269 269 269 270 271 273 275 277 280 283 285 284 282 282 283 286 289 293 294 293 291 291 292 293 295 297 299 299 299 300 301 302 302 302 301 301 301 301 300 299 298 297 296 295 294 293
267 266 265 263 262 262 261 261 260 260 260 261 261 262 263 263 264 265 266 266 266 265 265 267 268 269 269 270 271 271 271 271 272 273 275 277 280 282 284 284 282 282 284 288 291 294 294 293 293 294 295 296 298 299 300 300 300 302 303 304 303 302 302 303 303 303 303 302 301 300 299 298 297 296
262 262 262 263 263 262 262 262 262 264 264 265 266 267 267 267 267 267 268 270 270 269 268 268 269 270 269 269 271 273 273 273 273 273 274 277 279 281 282 281 281 282 285 288 291 293 293 293 294 295 297 298 300 301 300 300 301 303 304 304 304 303 304 305 306 307 307 305 303 301 300 299 298 296
258 259 260 262 264 264 263 263 263 264 264 265 267 268 269 269 269 270 271 272 272 272 271 270 269 269 269 269 271 273 275 275 274 274 275 277 278 279 280 280 280 283 286 289 291 292 292 293 295 296 298 300 302 302 301 301 303 304 304 304 304 305 306 308 309 311 310 307 304 302 301 300 298 297
255 258 260 262 264 264 264 264 265 265 265 267 268 268 269 269 269 270 272 272 272 272 272 270 270 269 269 269 271 273 275 276 275 275 276 277 279 279 279 280 282 285 288 290 291 292 293 294 295 297 300 302 302 301 301 302 303 303 303 304 304 306 307 310 312 313 310 306 303 303 302 301 299 298
255 258 260 261 262 263 261 262 265 268 271 272 271 270 268 268 268 270 270 270 271 271 271 271 271 271 271 272 272 274 274 275 275 275 276 278 279 279 280 281 284 286 288 289 290 291 293 294 295 297 300 301 301 300 300 301 301 301 301 302 303 305 307 311 313 312 309 305 304 304 302 301 300 299
261 261 262 261 261 262 261 261 263 266 270 272 272 271 269 268 270 270 269 268 268 268 269 271 272 272 273 273 273 273 274 275 275 276 277 278 279 279 280 282 284 285 287 288 289 291 292 293 293 296 300 300 299 298 297 298 299 298 299 300 301 303 307 312 314 311 307 306 305 304 303 302 302 301
262 262 262 261 261 262 263 264 264 265 267 270 272 272 271 271 271 270 267 266 266 265 268 272 275 275 274 273 273 273 274 275 276 277 277 278 279 279 281 282 283 284 286 287 288 289 291 290 291 295 298 298 296 295 295 296 297 296 296 298 300 304 310 313 313 310 307 306 304 303 303 303 302 301
261 260 260 260 259 260 262 264 265 267 267 267 268 270 271 271 271 269 267 267 267 269 272 276 277 276 274 273 273 275 276 277 277 277 277 277 278 278 279 280 282 283 285 286 287 288 289 288 289 293 295 294 294 294 295 296 296 296 295 297 302 308 312 313 311 308 306 305 304 303 303 303 302 301
262 262 261 261 260 261 262 264 266 268 268 267 266 268 270 270 270 270 271 272 273 274 275 275 274 273 274 275 276 276 277 277 276 275 275 276 276 276 277 279 281 283 284 284 286 287 287 286 288 290 292 293 294 294 295 296 296 296 296 300 306 311 313 312 309 307 305 304 304 304 303 303 303 303
263 263 262 262 261 261 262 264 265 266 267 268 268 268 269 270 270 271 272 273 274 274 272 271 271 272 274 276 277 276 276 276 276 275 275 275 275 276 277 279 280 281 282 283 285 285 284 285 288 291 292 293 294 294 295 296 296 297 300 305 309 312 312 310 307 305 304 304 304 304 305 305 305 304
263 262 261 261 261 260 260 261 262 262 264 265 265 266 268 270 271 271 272 273 272 271 269 268 270 271 272 274 276 276 276 276 276 277 277 276 276 276 276 277 279 280 281 282 283 283 284 287 290 291 292 293 294 294 295 295 296 299 304 308 310 311 309 307 305 303 303 303 303 304 305 306 305 305
263 262 261 261 261 260 259 258 259 261 263 264 264 264 265 267 268 270 270 270 268 268 269 271 273 274 274 273 273 274 274 274 275 275 275 274 274 274 274 276 277 278 279 281 283 285 287 289 289 289 290 292 293 294 295 296 298 301 305 308 309 308 306 304 302 301 300 301 301 303 304 305 305 306
263 262 261 260 260 260 260 259 259 260 262 264 264 263 263 264 265 266 266 266 267 269 271 272 273 272 271 269 268 270 272 272 273 272 270 270 272 272 273 274 275 277 279 282 285 287 288 287 286 287 289 290 292 294 295 297 300 303 306 307 307 305 303 302 301 299 299 301 302 303 304 306 307 307
263 263 262 261 260 259 259 259 260 259 258 258 259 260 262 264 265 265 266 268 270 271 271 269 268 267 267 266 267 268 270 270 270 268 265 267 270 271 272 273 275 278 280 283 285 285 284 283 283 285 289 292 294 295 297 299 303 305 306 306 304 303 302 301 300 300 301 302 303 304 305 306 308 308
263 263 262 261 260 258 256 256 257 255 253 252 254 257 261 265 266 267 267 269 270 270 269 267 267 267 267 267 267 267 269 270 268 265 264 267 269 270 271 273 276 278 280 281 282 281 280 280 281 285 290 294 297 299 301 303 306 306 305 303 302 302 301 300 300 300 302 302 303 304 305 306 307 307
263 262 261 260 259 257 254 252 252 252 252 252 255 259 262 263 265 266 266 266 268 268 267 267 267 266 265 265 266 268 270 270 267 265 266 268 268 269 271 274 276 278 278 278 279 278 279 280 282 286 291 295 298 301 304 306 306 305 302 300 300 299 299 298 299 300 301 301 303 305 305 305 306 306
264 263 262 260 259 257 254 252 252 255 257 257 259 263 266 265 265 265 264 263 264 264 264 265 265 264 264 265 266 268 269 268 267 267 268 269 271 273 276 277 277 277 277 277 277 278 279 282 285 289 293 297 300 303 305 306 305 302 298 297 297 297 297 298 299 300 300 302 304 305 304 304 305 305
265 264 263 261 260 258 255 252 252 254 258 261 263 266 269 270 267 263 262 262 263 264 264 263 262 261 261 262 263 264 265 266 267 268 270 271 274 275 275 275 275 275 277 279 280 282 285 288 291 294 296 299 303 304 304 303 301 297 294 294 295 296 298 299 300 300 301 304 305 305 303 302 302 303
267 266 265 263 262 260 258 256 253 253 255 260 262 263 264 264 261 259 260 261 262 262 261 259 257 257 257 259 260 262 264 265 266 268 270 272 273 275 276 278 280 282 284 287 288 290 291 293 295 297 300 303 304 304 302 298 294 289 287 289 294 298 302 303 302 303 305 306 306 306 305 303 302 302
267 267 266 264 263 261 260 259 258 256 255 258 260 261 260 257 256 260 265 265 261 258 257 256 256 256 258 260 263 264 265 267 268 270 273 275 278 282 284 287 288 290 291 292 292 294 295 297 299 301 303 303 303 300 297 291 284 279 279 285 293 300 305 307 307 310 310 310 311 312 312 308 304 303
268 267 266 264 264 262 260 259 259 260 260 260 261 262 262 260 259 262 266 267 264 261 259 258 258 260 261 262 264 266 268 271 273 276 279 282 285 287 289 291 292 293 293 293 295 297 299 301 302 302 301 300 298 295 289 280 272 270 273 280 290 302 310 314 318 320 318 318 320 321 319 314 309 307
271 269 268 266 265 263 260 257 255 256 259 262 264 264 264 263 261 260 262 263 262 260 259 259 260 261 262 263 266 270 274 278 280 283 285 287 288 290 291 292 292 293 294 296 298 300 300 300 300 298 296 295 292 287 278 267 262 262 267 274 286 301 314 322 329 330 327 328 330 329 325 320 316 313
274 273 271 269 266 262 258 253 250 249 251 252 250 249 249 250 251 252 253 254 256 256 257 258 260 263 267 271 275 279 281 283 285 286 286 286 287 289 290 291 292 294 296 298 299 299 298 298 296 293 290 287 283 276 265 257 254 255 260 268 281 297 312 324 334 336 336 336 337 336 333 328 324 320
275 275 275 272 267 262 254 247 243 243 242 240 237 236 238 243 248 251 253 257 260 262 263 265 269 273 276 278 280 281 282 283 283 283 283 285 287 289 291 292 294 295 296 297 297 296 295 294 291 287 281 276 269 263 257 252 250 250 253 262 275 291 307 322 333 338 341 342 343 342 340 337 334 331